Regional Weather Roundup
Issued by NWS

Home | Current Version | Previous Version | Text Only | Print | Product List | Glossary Off
Versions: 1 2 3 4 5 6 7 8 9 10 11 12 13 14 15 16 17 18 19 20 21 22 23 24 25 26 27 28 29 30 31 32 33 34 35 36 37 38 39 40 41 42 43 44 45 46 47 48 49 50

000
ASUS43 KLMK 291202
RWRKY
KENTUCKY REGIONAL WEATHER ROUNDUP
NATIONAL WEATHER SERVICE LOUISVILLE KY
700 AM EST MON DEC 29 2014

NOTE "FAIR" INDICATES FEW OR NO CLOUDS BELOW 12,000 FEET
WITH NO SIGNIFICANT WEATHER AND/OR OBSTRUCTIONS TO VISIBILITY.

KYZ001>023-026-027-061>063-070>075-291300-
WESTERN AND SOUTH CENTRAL KENTUCKY

CITY           SKY/WX    TMP DP  RH WIND       PRES   REMARKS
PADUCAH        CLOUDY    31  25  78 NE10      30.22R WCI  22
HENDERSON      CLOUDY    30  25  80 E12       30.23R WCI  21
OWENSBORO      CLOUDY    34  29  82 NE8       30.22R WCI  27
HOPKINSVILLE   CLOUDY    34  31  90 N8        30.19R WCI  27
BOWLING GREEN  CLOUDY    36  31  82 N5        30.18R WCI  32
GLASGOW        NOT AVBL
$$

KYZ024-025-028>034-038-045-046-053-291300-
NORTH CENTRAL KENTUCKY

CITY           SKY/WX    TMP DP  RH WIND       PRES   REMARKS
LOUISVILLE/SDF CLOUDY    34  29  82 N8        30.21S WCI  27
LOUISVILLE/LOU CLOUDY    33  28  81 N5        30.22R WCI  29
FORT KNOX      CLOUDY    32  29  89 N6        30.18S WCI  26
$$

KYZ035>037-039>044-047>052-055>060-089>105-291300-
NORTHEAST KENTUCKY

CITY           SKY/WX    TMP DP  RH WIND       PRES   REMARKS
LEXINGTON      PTCLDY    30  28  92 NE9       30.17S WCI  22
COVINGTON      CLOUDY    30  23  75 N10       30.22S WCI  21
FRANKFORT      CLOUDY    31  27  85 N6        30.19S WCI  25
$$

KYZ054-064>069-076>088-106>120-291300-
SOUTHEAST KENTUCKY

CITY           SKY/WX    TMP DP  RH WIND       PRES   REMARKS
JACKSON        FOG       34  33  96 VRB3      30.13R VSB 1
LONDON         CLOUDY    37  34  89 NE8       30.12S FOG     WCI  31
SOMERSET       NOT AVBL
MIDDLESBORO    NOT AVBL
MONTICELLO     CLOUDY    37  36  96 N6        30.17R FOG     WCI  32
$$




USA.gov is the U.S. government's official web portal to all federal, state and local government web resources and services.